Location: Lixville
(37.5770°N, 89.9118°W)
Time: 14:11:28
(UTC+00:00)

Courier 1B Rocket - Pass Details

Date: 14 November 2024
Orbit: 920 x 1201 km, 28.2° (Epoch: 02 December)

Event Time Altitude Azimuth Distance (km) Brightness Sun altitude
Rises 01:41:01 0° 262° (W) 3,595 9.0 -34.0°
Reaches altitude 10° 01:44:12 10° 248° (WSW) 2,624 7.9 -34.6°
Enters shadow 01:48:18 22° 207° (SSW) 1,871 6.6 -35.4°
